Location: Aulnoy
(48.8410°N, 3.0967°E)
Time: 16:30:55
(UTC+00:00)

Cosmos 2219 Rocket - Pass Details

Date: 09 February 2023
Orbit: 826 x 848 km, 71.0° (Epoch: 25 March)

Event Time Altitude Azimuth Distance (km) Brightness Sun altitude
Rises 19:53:37 0° 251° (WSW) 3,364 6.2 -29.2°
Reaches altitude 10° 19:56:34 10° 266° (W) 2,437 5.4 -29.7°
Maximum altitude 20:00:56 23° 318° (NW) 1,711 4.3 -30.4°
Drops below altitude 10° 20:05:20 10° 10° (N) 2,456 4.6 -31.1°
Enters shadow 20:05:21 10° 10° (N) 2,458 4.6 -31.1°
